Showing default

SIT-HSE, 61763

Orbit data source: Space-Track

SIT-HSE, 61763 is a Commonwealth of Independent States-origin payload satellite in SSO that was launched on Mon, 04 Nov 2024 UTC via a SOYUZ-2-1B launch vehicle from the Vostochny Cosmodrome (VOSTO). Payload-class satellites include a variety of spacecraft equipped with specific instruments for various scientific and technological missions. These include communications satellites like Starlink; space stations such as the ISS; scientific satellites like the Hubble; Earth observation satellites from companies like Planet Labs, Umbra, and HawkEye 360; GPS; miniature CubeSats for education and research; and military/defense satellites.

Loading next visibility...
Identifier
61763, 2024-199AE
Orbit
SSO
Country
Flag of CISCIS
Related business
Manufacturer
Sputniks
Mission
Operational Amateur Technology
Bus & Motor
CUBESAT 3U, Unknown motor
Mass
3 kg wet, 3 kg dry
Launch date (UTC)
2024-11-04 (1 year ago)
Launch vehicle
SOYUZ-2-1B
Launch site
Vostochny Cosmodrome (VOSTO)
Object type
Payload
Rocket body
Debris
Shape & HBR
Box, 0.1 m
Radar Cross Section
0.035 m², Small (<0.1 m²)

Expand to show TLE details & history
Last TLE update: 8 hours ago

TLE from 8 hours ago
0 SIT-HSE
1 61763U 24199AE  25312.90367547  .00047987  00000-0  11480-2 0  9993
2 61763  97.3264 182.0022 0007403  24.4904 335.6693 15.41290865103536
Epoch: 2025-11-08T21:41Z
TLE epoch observation values (Epoch: 2025-11-08T21:41:17.560Z)
Latitude
-0.00005°
Longitude
168.35243°
Altitude
440.819 km
Speed
7.65 km/s
True Right ascension
12h 08m 00s
True Declination
0° 00' 00"
Sunlit
Object was in daylight at epoch
Visualization orbit readout
Latitude
Unknown
Longitude
Unknown
Altitude
Unknown
Speed
Unknown
Apparent Right ascension
Unknown
Apparent Declination
Unknown
Sunlit
N/A
Visualization observer readout
Local Sidereal Time
02:03:26
Azimuth
Unknown
Elevation
Unknown
Doppler factor
Unknown
Orbital elements
Apogee altitude
444.279 km
Perigee altitude
434.186 km
Semi-major axis
6,817.37 km
Eccentricity
0.00074
Inclination
97.3264°
RAAN
182.0022°
Arg. of periapsis
24.4904°
True anomaly
335.63432°
Mean anomaly
335.6693°
Eccentric anomaly
335.65181°
Mean motion
3.85583 °/min
Orbital period
93.37 mins
BSTAR
0.001148
Loading maneuver chart data...
Computing Atmospheric mass density...
Loading historical data...
Loading historical data...
Loading historical data...
Loading historical data...
Loading historical data...
Loading historical data...
Loading historical data...

Documentation

Showing up to 5 results
|